This is the latest recevied weather packets stored in our database for station/object DL4NBA-1. If no packets are shown the sender has not sent any weather packets the latest 10 day(s).
| Time | Temp. | Humidity | Pressure | Rain* | Wind** | Luminosity | Snow |
|---|---|---|---|---|---|---|---|
| 1788158907 | 63° F | - | - | 0 in | 13 mph, 233° | - | - |
| 1788158608 | 62° F | - | - | 0 in | 5 mph, 243° | - | - |
| 1788158310 | 63° F | - | - | 0 in | 7 mph, 235° | - | - |
| 1788158007 | 62° F | - | - | 0 in | 6 mph, 225° | - | - |
| 1788157410 | 62° F | - | - | 0 in | 6 mph, 201° | - | - |
| 1788157111 | 62° F | - | - | 0 in | 6 mph, 207° | - | - |
| 1788156510 | 62° F | - | - | 0 in | 5 mph, 208° | - | - |
| 1788156212 | 62° F | - | - | 0 in | 8 mph, 208° | - | - |
| 1788155316 | 62° F | - | - | 0 in | 6 mph, 242° | - | - |
| 1788155015 | 62° F | - | - | 0 in | 9 mph, 248° | - | - |
| 1788153818 | 62° F | - | - | 0 in | 10 mph, 225° | - | - |
| 1788153516 | 62° F | - | - | 0 in | 9 mph, 222° | - | - |
| 1788153217 | 62° F | - | - | 0 in | 11 mph, 238° | - | - |
| 1788152919 | 62° F | - | - | 0 in | 5 mph, 215° | - | - |
| 1788152620 | 62° F | - | - | 0 in | 7 mph, 207° | - | - |
| 1788152322 | 61° F | - | - | 0 in | 7 mph, 215° | - | - |
| 1788151722 | 61° F | - | - | 0 in | 6 mph, 191° | - | - |
| 1788151423 | 61° F | - | - | 0 in | 5 mph, 166° | - | - |
| 1788150826 | 60° F | - | - | 0 in | 5 mph, 183° | - | - |
| 1788150525 | 60° F | - | - | 0 in | 4 mph, 200° | - | - |
| 1788149928 | 61° F | - | - | 0 in | 4 mph, 201° | - | - |
| 1788149629 | 60° F | - | - | 0 in | 5 mph, 159° | - | - |
| 1788148731 | 60° F | - | - | 0 in | 5 mph, 222° | - | - |
| 1788148133 | 60° F | - | - | 0 in | 8 mph, 210° | - | - |
| 1788147835 | 60° F | - | - | 0 in | 5 mph, 205° | - | - |
* Rain latest hour (hover to see other rain measurements)
** Current wind speed in m/s (hover to see current wind gust speed)